{"data":{"norad_id":54376,"epoch":"2026-05-25T04:55:14.439936Z","epoch_age_seconds":74143,"freshness":"FRESH","line1":"1 54376U 22160E   26145.20502824  .00007281  00000+0  30285-3 0  9995","line2":"2 54376  35.0087 124.0640 0006526 188.0425 172.0185 15.23055730194542","mean_motion":15.2305573,"eccentricity":0.0006526,"inclination_deg":35.0087,"raan_deg":124.064,"arg_perigee_deg":188.0425,"mean_anomaly_deg":172.0185,"bstar":0.00030285,"rev_number":19454,"period_min":94.546770130335,"perigee_km":492.14343950915,"apogee_km":501.11638528321,"semimajor_km":6874.7669123962,"source":"CELESTRAK","updated_at":"2026-05-25T13:37:58.667663Z"}}